Dickinson, ND

6:43 AM MDT on April 27, 2017 (GMT -0600)
Dickinson Municipal

Weather History for KDIK - March, 2014

Change the Weather History Date:

Tuesday, March 18, 2014

  Actual Average Record
Temperature  
Mean Temperature 32 °F 31 °F  
Max Temperature 43 °F 42 °F 79 °F (2012)
Min Temperature 20 °F 20 °F -17 °F (1923)
Degree Days  
Heating Degree Days 33 34  
Month to date heating degree days 689 677  
Since 1 July heating degree days 7331 6971  
Cooling Degree Days 0 0  
Month to date cooling degree days 0 0  
Year to date cooling degree days 0 0  
Moisture  
Dew Point 26 °F    
Average Humidity 70    
Maximum Humidity 100    
Minimum Humidity 39    
Precipitation  
Precipitation 0.00 in 0.03 in 0.40 in (1914)
Month to date precipitation 0.21 0.34  
Year to date precipitation 0.38 0.97  
Sea Level Pressure  
Sea Level Pressure 29.87 in    
Wind  
Wind Speed 11 mph (NW)    
Max Wind Speed 29 mph    
Max Gust Speed 33 mph    
Visibility 7 miles    
Events Fog    
T = Trace of Precipitation, MM = Missing Value Source: NWS Daily Summary

Daily Weather History Graph

Daily Weather History Graph

Search for Another Location

Airport or City:

Trip Planner

Search our weather history database for the weather conditions in past years. The results will help you decide how hot, cold, wet, or windy it might be!

Date:

Astronomy

Mar. 18, 2014 Rise Set
Actual Time 6:58 AM MDT 7:01 PM MDT
Civil Twilight 6:27 AM MDT 7:31 PM MDT
Nautical Twilight 5:52 AM MDT 8:06 PM MDT
Astronomical Twilight 5:16 AM MDT 8:43 PM MDT
Moon 9:31 PM MDT (3/18) 7:40 AM MDT (3/18)
Length of Visible Light 13h 03m
Length of Day
12h 03m
Waning Gibbous, 96% of the Moon is Illuminated
Mar 18
Waning Gibbous
Mar 23
Last Quarter
Mar 30
New
Apr 7
First Quarter
Apr 15
Full

Hourly Weather History & Observations

Time (MDT) Temp. Windchill Dew Point Humidity Pressure Visibility Wind Dir Wind Speed Gust Speed Precip Events Conditions
12:56 AM 32.0 °F 24.8 °F 30.0 °F 92% 29.72 in 8.0 mi North 8.1 mph - N/A   Clear
1:16 AM 32.0 °F 24.8 °F 28.9 °F 88% 29.68 in 7.0 mi North 8.1 mph - N/A   Scattered Clouds
1:25 AM 32.0 °F 24.8 °F 30.0 °F 92% 29.69 in 7.0 mi North 8.1 mph - N/A   Mostly Cloudy
1:44 AM 32.0 °F 24.8 °F 30.0 °F 92% 29.69 in 1.8 mi NNE 8.1 mph - N/A   Overcast
1:56 AM 32.0 °F 26.4 °F 30.0 °F 92% 29.75 in 0.5 mi NNE 5.8 mph - N/A Fog Fog
2:06 AM 32.0 °F 28.7 °F 30.0 °F 92% 29.70 in 0.2 mi NNE 3.5 mph - N/A Fog Fog
2:56 AM 32.0 °F 25.6 °F 30.0 °F 92% 29.77 in 0.2 mi North 6.9 mph - N/A Fog Fog
3:56 AM 30.9 °F 25.2 °F 30.0 °F 96% 29.78 in 0.2 mi NNW 5.8 mph - N/A Fog Light Freezing Fog
4:56 AM 30.9 °F 25.2 °F 30.0 °F 96% 29.81 in 0.2 mi NW 5.8 mph - N/A Fog Light Freezing Fog
5:27 AM 28.9 °F 22.8 °F 28.0 °F 96% 29.75 in 0.5 mi NW 5.8 mph - N/A Fog Light Freezing Fog
5:38 AM 26.1 °F 19.4 °F 26.1 °F 100% 29.76 in 2.0 mi WNW 5.8 mph - N/A   Mostly Cloudy
5:43 AM 26.1 °F 18.4 °F 25.0 °F 96% 29.76 in 3.0 mi WNW 6.9 mph - N/A   Scattered Clouds
5:56 AM 26.1 °F 18.4 °F 24.1 °F 92% 29.84 in 6.0 mi WNW 6.9 mph - N/A   Partly Cloudy
6:56 AM 26.1 °F 16.8 °F 24.1 °F 92% 29.85 in 7.0 mi WNW 9.2 mph - N/A   Clear
7:56 AM 28.0 °F 18.1 °F 26.1 °F 92% 29.87 in 7.0 mi WNW 11.5 mph - N/A   Clear
8:21 AM 28.9 °F 19.2 °F 27.0 °F 92% 29.81 in 8.0 mi WNW 11.5 mph - N/A   Scattered Clouds
8:30 AM 28.9 °F 18.2 °F 27.0 °F 92% 29.81 in 8.0 mi NW 13.8 mph - N/A   Mostly Cloudy
8:56 AM 30.0 °F 18.7 °F 28.0 °F 92% 29.89 in 7.0 mi NW 16.1 mph - N/A   Overcast
9:56 AM 32.0 °F 22.5 °F 30.0 °F 92% 29.92 in 4.0 mi NW 12.7 mph - N/A   Overcast
10:56 AM 32.0 °F 20.8 °F 30.0 °F 92% 29.94 in 8.0 mi NW 17.3 mph - N/A   Overcast
11:56 AM 33.1 °F 22.2 °F 30.0 °F 89% 29.96 in 10.0 mi NW 17.3 mph - N/A   Overcast
12:26 PM 34.0 °F 22.7 °F 30.0 °F 85% 29.90 in 10.0 mi NW 19.6 mph 25.3 mph N/A   Overcast
12:56 PM 34.0 °F 23.0 °F 30.0 °F 85% 29.98 in 10.0 mi NW 18.4 mph - N/A   Overcast
1:56 PM 37.9 °F 27.6 °F 28.9 °F 70% 29.96 in 10.0 mi WNW 20.7 mph - N/A   Mostly Cloudy
2:27 PM 39.0 °F 29.0 °F 26.1 °F 60% 29.89 in 10.0 mi NW 20.7 mph 32.2 mph N/A   Scattered Clouds
2:56 PM 41.0 °F 31.6 °F 26.1 °F 55% 29.94 in 10.0 mi NNW 20.7 mph - N/A   Scattered Clouds
3:56 PM 42.1 °F 32.3 °F 19.9 °F 41% 29.94 in 10.0 mi NW 24.2 mph 31.1 mph N/A   Partly Cloudy
4:56 PM 41.0 °F 30.9 °F 19.0 °F 41% 29.96 in 10.0 mi NW 24.2 mph 28.8 mph N/A   Clear
5:56 PM 39.9 °F 30.8 °F 19.0 °F 43% 29.98 in 10.0 mi NW 18.4 mph - N/A   Clear
6:56 PM 36.0 °F 29.0 °F 19.9 °F 52% 30.01 in 10.0 mi NNW 9.2 mph - N/A   Clear
7:56 PM 32.0 °F 26.4 °F 18.0 °F 56% 30.03 in 10.0 mi North 5.8 mph - N/A   Clear
8:56 PM 26.1 °F - 18.0 °F 71% 30.06 in 10.0 mi Calm Calm - N/A   Clear
9:56 PM 27.0 °F - 18.0 °F 69% 30.06 in 10.0 mi Calm Calm - N/A   Clear
10:56 PM 21.0 °F 13.4 °F 16.0 °F 81% 30.06 in 10.0 mi South 5.8 mph - N/A   Clear
11:56 PM 21.0 °F 14.6 °F 16.0 °F 81% 30.05 in 10.0 mi SW 4.6 mph - N/A   Clear